This demonstration page uses our WeatherBlox Daily Observations layout. Learn more.

Left ArrowRight Arrow

30.21309, -93.2044

Hourly Observations for October 13, 2015

Temp ( °F °C ) Dew Point ( °F °C ) Humidity (%) Winds ( mph kmh ) Pressure ( in mb ) Visibility ( mi km ) Precip ( " mm )
12:15 am 00:15 Clear 68 20 67 19.7 98 98 S 5 7 29.88 1012 7 11 0.00 0.00
12:35 am 00:35 Clear 68 20.2 68 20 99 99 Calm 29.88 1012 10 16 0.00 0.00
12:55 am 00:55 Clear 69 20.7 69 20.3 98 98 Calm 29.88 1012 10 16 0.00 0.00
1:15 am 01:15 Clear 69 20.4 68 20 98 98 S 3 6 29.85 1011 7 11 0.00 0.00
1:35 am 01:35 Clear with Mist and Fog 68 20 68 19.8 99 99 S 3 6 29.85 1011 5 8 0.00 0.00
1:55 am 01:55 Clear 69 20.6 69 20.5 99 99 Calm 29.85 1011 7 11 0.00 0.00
2:15 am 02:15 Clear with Mist and Fog 69 20.5 68 20.2 98 98 Calm 29.85 1011 4 6 0.00 0.00
2:35 am 02:35 Clear 69 20.8 69 20.7 99 99 Calm 29.85 1011 7 11 0.00 0.00
2:55 am 02:55 Clear with Mist and Fog 69 20.3 68 20.1 99 99 Calm 29.85 1011 4 6 0.00 0.00
3:15 am 03:15 Clear 70 21.2 70 21.1 99 99 Calm 29.85 1011 7 11 0.00 0.00
3:35 am 03:35 Clear 69 20.6 69 20.3 98 98 Calm 29.85 1011 7 11 0.00 0.00
3:55 am 03:55 Clear 72 22 71 21.9 99 99 SW 3 6 29.85 1011 10 16 0.00 0.00
4:15 am 04:15 Mostly Cloudy 74 23.3 73 22.7 96 96 SW 3 6 29.88 1012 10 16 0.00 0.00
4:35 am 04:35 Cloudy 75 23.7 73 23 96 96 WSW 3 6 29.88 1012 10 16 0.00 0.00
4:55 am 04:55 Cloudy 75 24 74 23.1 95 95 W 3 6 29.88 1012 10 16 0.00 0.00
5:15 am 05:15 Cloudy 75 24.1 74 23.2 95 95 WSW 6 9 29.88 1012 10 16 0.00 0.00
6:00 am 06:00 Cloudy 75 24 73 23 94 94 Calm 29.88 1012 10 16 0.00 0.00
6:50 am 06:50 Cloudy with Mist and Fog 75 24 73 23 94 94 WNW 12 19 29.91 1013 6 10 0.00 0.00
7:45 am 07:45 Cloudy with Mist and Fog 75 24 73 23 94 94 WSW 3 6 29.91 1013 6 10 0.00 0.00
8:55 am 08:55 Mostly Cloudy 77 25 73 23 89 89 NW 12 19 29.94 1014 7 11 0.00 0.00
9:50 am 09:50 Mostly Cloudy 79 26 73 23 84 84 NNW 8 13 29.94 1014 7 11 0.00 0.00
10:50 am 10:50 Partly Cloudy 82 28 72 22 70 70 E 8 13 29.94 1014 10 16 0.00 0.00
11:45 am 11:45 Partly Cloudy 82 28 72 22 70 70 Calm 29.94 1014 10 16 0.00 0.00
12:55 pm 12:55 Partly Cloudy 86 30 72 22 62 62 Calm 29.94 1014 10 16 0.00 0.00
1:55 pm 13:55 Partly Cloudy 84 29 72 22 66 66 Calm 29.91 1013 10 16 0.00 0.00
2:55 pm 14:55 Partly Cloudy 90 32 70 21 52 52 VRB 9 15 29.91 1013 10 16 0.00 0.00
3:50 pm 15:50 Partly Cloudy 90 32 63 17 41 41 NNW 7 11 29.88 1012 10 16 0.00 0.00
4:55 pm 16:55 Mostly Sunny 90 32 54 12 29 29 N 7 11 29.88 1012 10 16 0.00 0.00
5:50 pm 17:50 Mostly Sunny 88 31 57 14 35 35 NNW 5 7 29.88 1012 10 16 0.00 0.00
6:55 pm 18:55 Mostly Clear 81 27 55 13 42 42 NNW 5 7 29.88 1012 10 16 0.00 0.00
7:55 pm 19:55 Mostly Clear 73 23 55 13 53 53 NNW 5 7 29.91 1013 10 16 0.00 0.00
8:50 pm 20:50 Mostly Clear 73 23 52 11 47 47 N 3 6 29.94 1014 10 16 0.00 0.00
9:50 pm 21:50 Mostly Clear 70 21 55 13 60 60 NNW 3 6 29.97 1015 10 16 0.00 0.00
10:15 pm 22:15 Clear 68 19.9 52 11.2 57 57 Calm 29.97 1015 10 16 0.00 0.00
10:35 pm 22:35 Clear 65 18.1 53 11.7 66 66 Calm 29.97 1015 10 16 0.00 0.00
10:55 pm 22:55 Clear 66 18.8 52 11.1 61 61 Calm 29.97 1015 10 16 0.00 0.00
11:15 pm 23:15 Clear 65 18.3 54 12 67 67 Calm 29.97 1015 10 16 0.00 0.00
11:35 pm 23:35 Clear 65 18.6 51 10.4 59 59 N 3 6 29.97 1015 10 16 0.00 0.00
11:55 pm 23:55 Clear 64 17.6 53 11.6 68 68 N 3 6 29.97 1015 10 16 0.00 0.00

Powered by AerisWeather